Regional Weather Roundup
Issued by NWS

Home | Current Version | Previous Version | Text Only | Print | Product List | Glossary Off
Versions: 1 2 3 4 5 6 7 8 9 10 11 12 13 14 15 16 17 18 19 20 21 22 23 24 25 26 27 28 29 30 31 32 33 34 35 36 37 38 39 40 41 42 43 44 45 46 47 48 49 50

000
ASUS43 KBIS 270802
RWRND

NORTH DAKOTA REGIONAL WEATHER ROUNDUP
NATIONAL WEATHER SERVICE BISMARCK ND
200 AM CST MON FEB 27 2017

NOTE: "FAIR" INDICATES FEW OR NO CLOUDS BELOW 12,000 FEET WITH NO
SIGNIFICANT WEATHER AND/OR OBSTRUCTIONS TO VISIBILITY.


NDZ001>003-009>011-017-270900-
NORTHWEST NORTH DAKOTA

CITY           SKY/WX    TMP DP  RH WIND       PRES   REMARKS
WILLISTON      FAIR      11   7  84 N13       29.82R WCI  -4
MINOT          FAIR      14  10  84 SW8       29.81R WCI   3
MINOT AFB      CLEAR      9   6  87 W9        29.80S WCI  -4
$$

NDZ018>021-031>035-040>046-270900-
SOUTHWEST NORTH DAKOTA

CITY           SKY/WX    TMP DP  RH WIND       PRES   REMARKS
BISMARCK       FAIR      12  10  92 CALM      29.86S
DICKINSON      CLOUDY    15  11  83 S7        29.74F WCI   5
GARRISON         N/A      7   4  87 CALM      29.81S
HETTINGER ARPT CLOUDY    20  16  84 SE7       29.77S WCI  11
$$

NDZ004>008-012>016-024-026-027-054-270900-
NORTHEAST NORTH DAKOTA

CITY           SKY/WX    TMP DP  RH WIND       PRES   REMARKS
GRAND FORKS    CLEAR      7   0  73 S7        29.91R WCI  -5
GRND FRKS AFB  CLOUDY     7   2  80 SW3       29.90S
DEVILS LAKE    FAIR       8   5  87 SW13      29.85R WCI  -8
$$

NDZ022-023-025-028>030-036>039-047>053-270900-
SOUTHEAST NORTH DAKOTA

CITY           SKY/WX    TMP DP  RH WIND       PRES   REMARKS
FARGO          CLOUDY    21  15  78 S8        29.92R WCI  11
JAMESTOWN      CLOUDY    21  17  84 CALM      29.86R
$$





USA.gov is the U.S. government's official web portal to all federal, state and local government web resources and services.